Back to catalog

COSMOS 2251 DEB

AliveVLEO
NORAD 35602·DEBRIS·🇷🇺 Russia

Launched Jun 16, 1993 from Plesetsk Cosmodrome

Loading…

Next Passes (next 24 hours)

TLE

AgingSource: Space-Track

Epoch: Sep 13, 2026, 09:40 UTC

1 35602U 93036AMV 26256.40333277  .00015261  00000-0  27901-3 0  9994
2 35602  73.9904 305.7780 0070418 297.2624  74.6192 15.46573880943239

Track COSMOS 2251 DEB in real time with AllMySat

Download on the App Store